This demonstration page uses our WeatherBlox Daily Observations layout. Learn more.

Left ArrowRight Arrow

34.74481, -87.66753

Hourly Observations for December 12, 2016

Temp ( °F °C ) Dew Point ( °F °C ) Humidity (%) Winds ( mph kmh ) Pressure ( in mb ) Visibility ( mi km ) Precip ( " mm )
12:53 am 00:53 Cloudy with Light Rain 56 13.3 51 10.6 84 84 SSW 16 26 29.97 1015 10 16 0.02 0.51
1:53 am 01:53 Cloudy 56 13.3 51 10.6 84 84 SSW 15 24 29.96 1015 10 16 0.00 0.03
2:53 am 02:53 Cloudy 57 13.9 52 11.1 83 83 SSW 16 26 29.94 1014 10 16 0.00 0.03
3:35 am 03:35 Cloudy with Rain 58 14.4 53 11.7 84 84 SSW 17 28 29.94 1014 5 8 0.06 1.52
3:53 am 03:53 Cloudy with Light Rain 58 14.4 53 11.7 84 84 SW 12 19 29.94 1014 8 13 0.08 2.03
4:04 am 04:04 Cloudy with Rain 58 14.4 54 12.2 87 87 NW 12 19 29.97 1015 6 10 0.02 0.51
4:53 am 04:53 Cloudy with Rain 55 12.8 52 11.1 90 90 NW 9 15 29.99 1016 4 6 0.19 4.83
5:00 am 05:00 Cloudy with Light Rain 55 12.8 52 11.1 90 90 NW 8 13 30.00 1016 6 10 0.01 0.25
5:15 am 05:15 Cloudy with Light Rain 55 12.8 52 11.1 90 90 NW 8 13 30.00 1016 7 11 0.02 0.51
5:53 am 05:53 Cloudy with Light Rain 54 12.2 52 11.1 93 93 WSW 8 13 30.01 1016 6 10 0.05 1.27
6:20 am 06:20 Cloudy with Light Rain 54 12.2 52 11.1 93 93 Calm 30.00 1016 8 13 0.02 0.51
6:29 am 06:29 Cloudy 54 12.2 52 11.1 93 93 Calm 30.00 1016 10 16 0.02 0.51
6:53 am 06:53 Cloudy 54 12.2 52 11.1 93 93 WSW 3 6 30.02 1017 10 16 0.02 0.51
7:53 am 07:53 Cloudy 55 12.8 52 11.1 90 90 NW 6 9 30.04 1017 10 16 0.00 0.00
8:19 am 08:19 Cloudy 55 12.8 52 11.1 90 90 NW 8 13 30.06 1018 10 16 0.00 0.00
8:53 am 08:53 Cloudy 55 12.8 51 10.6 87 87 NNW 7 11 30.08 1019 10 16 0.00 0.00
9:18 am 09:18 Cloudy 55 12.8 51 10.6 87 87 N 5 7 30.09 1019 10 16 0.00 0.00
9:25 am 09:25 Cloudy 56 13.3 52 11.1 87 87 N 7 11 30.09 1019 10 16 0.00 0.00
9:53 am 09:53 Cloudy 56 13.3 51 10.6 84 84 N 5 7 30.11 1020 10 16 0.00 0.00
10:36 am 10:36 Cloudy 56 13.3 50 10 81 81 N 5 7 30.12 1020 10 16 0.00 0.00
10:53 am 10:53 Cloudy 56 13.3 50 10 81 81 N 5 7 30.11 1020 10 16 0.00 0.00
11:13 am 11:13 Cloudy 55 12.8 49 9.4 80 80 NNE 7 11 30.09 1019 10 16 0.00 0.00
11:38 am 11:38 Cloudy 57 13.9 48 8.9 72 72 N 8 13 30.09 1019 10 16 0.00 0.00
11:53 am 11:53 Cloudy 57 13.9 48 8.9 72 72 NNE 6 9 30.09 1019 10 16 0.00 0.00
12:53 pm 12:53 Cloudy 56 13.3 47 8.3 72 72 NNE 7 11 30.09 1019 10 16 0.00 0.00
1:53 pm 13:53 Cloudy 57 13.9 46 7.8 67 67 NNE 7 11 30.09 1019 10 16 0.00 0.00
2:43 pm 14:43 Partly Cloudy 57 13.9 45 7.2 64 64 Calm 30.09 1019 10 16 0.00 0.00
2:53 pm 14:53 Mostly Cloudy 58 14.4 46 7.8 65 65 E 6 9 30.09 1019 10 16 0.00 0.00
3:17 pm 15:17 Partly Cloudy 57 13.9 45 7.2 64 64 NE 3 6 30.09 1019 10 16 0.00 0.00
3:53 pm 15:53 Mostly Cloudy 56 13.3 45 7.2 67 67 E 6 9 30.09 1019 10 16 0.00 0.00
4:03 pm 16:03 Partly Cloudy 56 13.3 45 7.2 67 67 E 5 7 30.09 1019 10 16 0.00 0.00
4:53 pm 16:53 Clear 53 11.7 44 6.7 72 72 NE 5 7 30.10 1019 10 16 0.00 0.00
5:53 pm 17:53 Clear 51 10.6 43 6.1 74 74 ENE 6 9 30.11 1020 10 16 0.00 0.00
6:53 pm 18:53 Clear 48 8.9 42 5.6 80 80 ENE 5 7 30.11 1020 10 16 0.00 0.00
7:53 pm 19:53 Clear 46 7.8 41 5 83 83 E 3 6 30.10 1019 10 16 0.00 0.00
8:53 pm 20:53 Clear 46 7.8 41 5 83 83 E 5 7 30.09 1019 10 16 0.00 0.00
9:53 pm 21:53 Clear 45 7.2 41 5 86 86 E 5 7 30.10 1019 10 16 0.00 0.00
10:53 pm 22:53 Clear 44 6.7 40 4.4 85 85 E 5 7 30.07 1018 10 16 0.00 0.00
11:53 pm 23:53 Clear 45 7.2 40 4.4 83 83 ESE 5 7 30.07 1018 10 16 0.00 0.00

Powered by AerisWeather